Regional Weather Roundup
Issued by NWS

Home | Current Version | Previous Version | Graphics & Text | Print | Product List | Glossary Off
Versions: 1 2 3 4 5 6 7 8 9 10 11 12 13 14 15 16 17 18 19 20 21 22 23 24 25 26 27 28 29 30 31 32 33 34 35 36 37 38 39 40 41 42 43 44 45 46 47 48 49 50

000
ASUS43 KFSD 281710
RWRSD

WEATHER ROUNDUP FOR SOUTH DAKOTA
NATIONAL WEATHER SERVICE SIOUX FALLS SD
1200 PM CDT TUE APR 28 2015

NOTE: "FAIR" INDICATES FEW OR NO CLOUDS BELOW 12,000 FEET WITH NO
SIGNIFICANT WEATHER AND/OR OBSTRUCTIONS TO VISIBILITY.


SDZ001>005-009-010-012>017-281800-
NORTHWEST AND NORTH CENTRAL SOUTH DAKOTA

CITY           SKY/WX    TMP DP  RH WIND       PRES   REMARKS
BUFFALO          N/A     54  36  50 S8        30.23F
FAITH            N/A     54  34  46 VRB5      30.32S
MOBRIDGE       MOSUNNY   56  39  53 MISG      30.29F
$$

SDZ012>016-024>037-041>051-057-063-072>074-281800-
SOUTHWEST AND SOUTH CENTRAL SOUTH DAKOTA

CITY           SKY/WX    TMP DP  RH WIND       PRES   REMARKS
RAPID CTY ARPT SUNNY     53  38  56 VRB7      30.31F
PIERRE         CLOUDY    54  38  54 N12       30.31S
CUSTER         CLOUDY    49  35  58 SW8       30.29F
ELLSWORTH AFB  SUNNY     53  39  58 VRB7      30.31S
PHILIP         SUNNY     56  35  45 VRB5      30.32F
PINE RIDGE     PTSUNNY   56  39  53 NE3       30.32S
SPEARFISH      FAIR      52  39  62 NE6       30.31S
WINNER         CLOUDY    55  36  48 N13       30.31F
$$

SDZ004>011-016>023-039-040-281800-
NORTHEAST SOUTH DAKOTA

CITY           SKY/WX    TMP DP  RH WIND       PRES   REMARKS
ABERDEEN       SUNNY     59  36  42 NE10      30.28F
WATERTOWN      MOSUNNY   59  42  53 N14G23    30.24F
BROOKINGS      CLOUDY    52  45  76 N15       30.25F
SISSETON         N/A     57  38  48 N18G24    30.25F
$$

SDZ017-020-022-023-036>040-048>070-281800-
SOUTHEAST SOUTH DAKOTA

CITY           SKY/WX    TMP DP  RH WIND       PRES   REMARKS
SIOUX FALLS    PTSUNNY   57  45  64 N12G20    30.23S
HURON          MOSUNNY   59  41  51 N15       30.27F
CHAMBERLAIN    CLOUDY    51  38  61 N10       30.31F
MITCHELL       CLOUDY    56  43  61 N12       30.28S
YANKTON        SUNNY     59  45  58 NW16G22   30.24F
$$

ABBREVIATIONS USED IN REMARKS
   TC - TEMPERATURE IN CELSIUS
  WCI - WIND CHILL INDEX
   HX - HEAT INDEX
  VSB - VISIBILITY




USA.gov is the U.S. government's official web portal to all federal, state and local government web resources and services.